Miscellaneous Local Product
Issued by NWS North Platte, NE

Home | Current Version | Previous Version | Text Only | Print | Product List | Glossary On
Versions: 1 2 3 4 5 6 7 8 9 10 11 12 13 14 15 16 17 18 19 20 21 22 23 24 25 26 27 28 29 30 31 32 33 34 35 36 37 38 39 40 41 42 43 44 45 46 47 48 49 50
000
AXUS43 KLBF 010210
MISLBF


WESTERN AND NORTH CENTRAL NEBRASKA HOURLY WEATHER ROUNDUP
NATIONAL WEATHER SERVICE NORTH PLATTE NE
900 PM CDT MON AUG 31 2015

NOTE: "FAIR" INDICATES FEW OR NO CLOUDS BELOW 12,000 FEET WITH NO
SIGNIFICANT WEATHER AND/OR OBSTRUCTIONS TO VISIBILITY.

NOTE: STATIONS NOT REPORTING VARIABLES SUCH AS SKY/WEATHER OR
PRESSURE ARE PROVIDED BY THE NEBRASKA DEPARTMENT OF
ROADS...RAWS...AND APRS NETWORKS...AND ARE NOT UNDER
NATIONAL WEATHER SERVICE QUALITY CONTROL.

...OBSERVATIONS IN AND NEAR THE EASTERN PANHANDLE OF NEBRASKA...

CITY           SKY/WX    TMP DP  RH WIND       PRES   REMARKS
PINE RIDGE     MOCLDY    67  58  72 NE3       29.96S
CHADRON        CLOUDY    74  57  55 CALM      29.95R
ALLIANCE       CLOUDY    68  54  60 W9        30.03R
SIDNEY         MOCLDY    72  50  45 E5        30.05R
CRESCENT LAKE    N/A     74  51  44 E3          N/A
BIG SPRINGS      N/A     78  57  48 NE3         N/A
$$

...OBSERVATIONS IN NORTH CENTRAL NEBRASKA...

CITY           SKY/WX    TMP DP  RH WIND       PRES   REMARKS
VALENTINE      CLOUDY    73  61  65 NE6       29.95R
THEDFORD       CLOUDY    76  62  62 CALM      29.97R
AINSWORTH      CLOUDY    73  64  75 N5        29.95R
O`NEILL        PTCLDY    78  71  79 SE6       29.91R
ORD            CLEAR     75  66  73 E6        29.89R
BROKEN BOW     PTCLDY    72  68  87 CALM      29.92R
SPRINGVIEW       N/A     73  64  73 CALM        N/A
SARGENT          N/A     75  66  75 CALM        N/A
CHAMBERS         N/A     75  66  73 CALM        N/A
EWING            N/A     74  66  76 CALM        N/A
$$

...OBSERVATIONS IN SOUTHWEST NEBRASKA AND FAR NORTHEAST COLORADO...

CITY           SKY/WX    TMP DP  RH WIND       PRES   REMARKS
WRAY           CLOUDY    81  51  35 N9        29.96R
HOLYOKE        FAIR      79  50  36 N8        29.98R
IMPERIAL       MOCLDY    78  59  51 N7        29.93R
OGALLALA       CLOUDY    79  57  46 NE7       29.95S
NORTH PLATTE   MOCLDY    76  66  71 NE7       29.92R
MCCOOK         CLEAR     82  62  50 E10       29.88R
LEXINGTON      CLEAR     74  68  80 E6        29.90R
PAXTON           N/A     80  62  53 NE5         N/A
BRADY            N/A     77  66  69 CALM        N/A
CALLAWAY         N/A     71  67  87 E3          N/A
$$

...OBSERVATIONS IN CENTRAL LINCOLN COUNTY AREA...

CITY           SKY/WX    TMP DP  RH WIND       PRES   REMARKS
N.P. AIRPORT   MOCLDY    76  66  71 NE7       29.92R
N.P. DOWNTOWN    N/A     80  67  65 CALM        N/A
N.P. SOUTHEAST   N/A     80  68  67 CALM        N/A
N.P. HILLCREST   N/A     79  66  64 NE7         N/A
$$

...SOME OBSERVATIONS FROM AROUND THE REGION...

CITY           SKY/WX    TMP DP  RH WIND       PRES   REMARKS
DENVER         CLOUDY    64  55  72 S7        30.16R
LARAMIE        CLOUDY    53  50  89 SE12      30.26F
CHEYENNE       LGT RAIN  63  47  55 W15       30.22R
SCOTTSBLUFF    LGT RAIN  75  49  39 SW20G31   30.06R
RAPID CITY     MOCLDY    66  58  75 E3        29.95R
PIERRE         CLOUDY    68  62  81 CALM      29.90R
WINNER         FAIR      74  61  63 N6        29.91S
SIOUX FALLS    PTCLDY    77  69  76 S12       29.89R
OMAHA          CLEAR     78  69  73 SE7       29.91R
GRAND ISLAND   CLEAR     76  69  79 E7        29.91R
KANSAS CITY    CLEAR     76  69  79 S7        29.96R
WICHITA        CLEAR     82  63  52 SE10      29.93R
HAYS           CLEAR     84  54  34 SE13      29.89R
LIBERAL        PTCLDY    81  48  32 S9        29.94R
GOODLAND       PTCLDY    76  52  43 SE6       29.93R
$$



USA.gov is the U.S. government's official web portal to all federal, state and local government web resources and services.